When you browse on this site, cookies collect data to enhance your experience and personalize the content and advertising you see.
Visit our Privacy Policy to learn more. By continuing to use the site, you agree to this use of cookies and data.
  • în România
  • Lista ţărilor
  • Pe 7 zile
  • Temperatura apei
  • Meteo pe hartă
  • Widget-uri
  • user-avatar
    Intrare

    Meteo pe oră la Linz

    Astăzi, 22 Octombrie, Marţi

    Timp Temperatura Precipitaţii Vânt Presiune Umiditate
    00:00 +14°C° 0 mm 1 m/s 737 mmHg 93%
    01:00 +14°C° 0 mm 1 m/s 737 mmHg 93%
    02:00 +13°C° 0 mm 1 m/s 737 mmHg 93%
    03:00 +13°C° 0 mm 1 m/s 737 mmHg 94%
    04:00 +12°C° 0 mm 0 m/s 737 mmHg 94%
    05:00 +12°C° 0 mm 0 m/s 737 mmHg 94%
    06:00 +11°C° 0 mm 0 m/s 738 mmHg 94%
    07:00 +11°C° 0 mm 0 m/s 738 mmHg 91%
    08:00 +13°C° 0 mm 0 m/s 738 mmHg 86%
    09:00 +14°C° 0 mm 0 m/s 738 mmHg 81%
    10:00 +18°C° 0 mm 1 m/s 738 mmHg 76%
    11:00 +19°C° 0 mm 1 m/s 738 mmHg 73%
    12:00 +20°C° 0 mm 1 m/s 738 mmHg 70%
    13:00 +21°C° 0 mm 1 m/s 738 mmHg 67%
    14:00 +21°C° 0 mm 1 m/s 737 mmHg 71%
    15:00 +18°C° 0 mm 0 m/s 737 mmHg 75%
    16:00 +18°C° 0 mm 0 m/s 737 mmHg 79%
    17:00 +16°C° 0 mm 0 m/s 737 mmHg 83%
    18:00 +15°C° 0 mm 0 m/s 737 mmHg 87%
    19:00 +14°C° 0 mm 0 m/s 737 mmHg 91%
    20:00 +13°C° 0 mm 0 m/s 737 mmHg 91%
    21:00 +13°C° 0 mm 0 m/s 737 mmHg 92%
    22:00 +14°C° 0 mm 1 m/s 737 mmHg 93%
    23:00 +12°C° 0 mm 0 m/s 737 mmHg 93%

    Mâine, 23 Octombrie, Miercuri

    Timp Temperatura Precipitaţii Vânt Presiune Umiditate
    00:00 +12°C° 0 mm 0 m/s 737 mmHg 93%
    01:00 +12°C° 0 mm 0 m/s 737 mmHg 94%
    02:00 +11°C° 0 mm 0 m/s 736 mmHg 94%
    03:00 +11°C° 0 mm 0 m/s 736 mmHg 94%
    04:00 +12°C° 0 mm 1 m/s 736 mmHg 94%
    05:00 +12°C° 0 mm 1 m/s 736 mmHg 94%
    06:00 +12°C° 0 mm 1 m/s 735 mmHg 94%
    07:00 +12°C° 0 mm 1 m/s 735 mmHg 95%
    08:00 +13°C° 0 mm 1 m/s 735 mmHg 90%
    09:00 +15°C° 0 mm 2 m/s 735 mmHg 85%
    10:00 +17°C° 0 mm 2 m/s 735 mmHg 80%
    11:00 +18°C° 0 mm 2 m/s 734 mmHg 77%
    12:00 +19°C° 0 mm 2 m/s 734 mmHg 74%
    13:00 +20°C° 0 mm 2 m/s 734 mmHg 70%
    14:00 +19°C° 0 mm 2 m/s 733 mmHg 75%
    15:00 +19°C° 0 mm 2 m/s 733 mmHg 79%
    16:00 +18°C° 0 mm 2 m/s 732 mmHg 83%
    17:00 +18°C° 0 mm 1 m/s 732 mmHg 85%
    18:00 +15°C° 0 mm 1 m/s 732 mmHg 88%
    19:00 +14°C° 0 mm 1 m/s 732 mmHg 90%
    20:00 +14°C° 0 mm 1 m/s 732 mmHg 89%
    21:00 +13°C° 0 mm 1 m/s 732 mmHg 88%
    22:00 +13°C° 0 mm 1 m/s 732 mmHg 87%
    23:00 +13°C° 0 mm 1 m/s 731 mmHg 87%

    Poimâine, 24 Octombrie, Joi

    Timp Temperatura Precipitaţii Vânt Presiune Umiditate
    00:00 +12°C° 0 mm 1 m/s 731 mmHg 87%
    01:00 +12°C° 0 mm 1 m/s 731 mmHg 87%
    02:00 +12°C° 0 mm 1 m/s 730 mmHg 87%
    03:00 +11°C° 0 mm 1 m/s 730 mmHg 86%
    04:00 +11°C° 0 mm 1 m/s 730 mmHg 86%
    05:00 +11°C° 0 mm 1 m/s 730 mmHg 85%
    06:00 +11°C° 0 mm 1 m/s 729 mmHg 85%
    07:00 +11°C° 0 mm 1 m/s 729 mmHg 85%
    08:00 +13°C° 0 mm 1 m/s 729 mmHg 79%
    09:00 +15°C° 0 mm 1 m/s 729 mmHg 72%
    10:00 +18°C° 0 mm 1 m/s 730 mmHg 66%
    11:00 +19°C° 0 mm 1 m/s 729 mmHg 63%
    12:00 +20°C° 0 mm 1 m/s 729 mmHg 59%
    13:00 +21°C° 0 mm 1 m/s 729 mmHg 56%
    14:00 +20°C° 0 mm 1 m/s 729 mmHg 61%
    15:00 +19°C° 0 mm 1 m/s 729 mmHg 66%
    16:00 +18°C° 0 mm 1 m/s 729 mmHg 71%
    17:00 +16°C° 0 mm 1 m/s 730 mmHg 75%
    18:00 +15°C° 0 mm 1 m/s 730 mmHg 80%
    19:00 +14°C° 0 mm 1 m/s 730 mmHg 84%
    20:00 +14°C° 0 mm 1 m/s 731 mmHg 86%
    21:00 +13°C° 0 mm 1 m/s 732 mmHg 87%
    22:00 +13°C° 0 mm 2 m/s 732 mmHg 89%
    23:00 +13°C° 0 mm 2 m/s 733 mmHg 91%

    25 Octombrie, Vineri

    Timp Temperatura Precipitaţii Vânt Presiune Umiditate
    00:00 +13°C° 0 mm 2 m/s 733 mmHg 92%
    01:00 +12°C° 0 mm 2 m/s 734 mmHg 94%
    02:00 +12°C° 0 mm 2 m/s 734 mmHg 94%
    03:00 +12°C° 0 mm 1 m/s 735 mmHg 94%
    04:00 +12°C° 0 mm 1 m/s 735 mmHg 95%
    05:00 +12°C° 0 mm 2 m/s 736 mmHg 94%
    06:00 +13°C° 0 mm 2 m/s 736 mmHg 93%
    07:00 +13°C° 0 mm 2 m/s 737 mmHg 93%
    08:00 +14°C° 0 mm 2 m/s 738 mmHg 88%
    09:00 +15°C° 0 mm 2 m/s 738 mmHg 83%
    10:00 +14°C° 0 mm 3 m/s 738 mmHg 79%
    11:00 +16°C° 0 mm 3 m/s 738 mmHg 75%
    12:00 +17°C° 0 mm 3 m/s 738 mmHg 72%
    13:00 +18°C° 0 mm 2 m/s 738 mmHg 68%
    14:00 +17°C° 0 mm 2 m/s 738 mmHg 71%
    15:00 +18°C° 0 mm 1 m/s 737 mmHg 73%
    16:00 +16°C° 0 mm 1 m/s 737 mmHg 76%
    17:00 +15°C° 0 mm 1 m/s 737 mmHg 80%
    18:00 +14°C° 0 mm 1 m/s 737 mmHg 85%
    19:00 +12°C° 0 mm 1 m/s 737 mmHg 89%
    20:00 +12°C° 0 mm 1 m/s 737 mmHg 90%
    21:00 +12°C° 0 mm 1 m/s 737 mmHg 91%
    22:00 +11°C° 0 mm 1 m/s 737 mmHg 92%
    23:00 +11°C° 0 mm 1 m/s 737 mmHg 92%

    26 Octombrie, Sâmbătă

    Timp Temperatura Precipitaţii Vânt Presiune Umiditate
    00:00 +11°C° 0 mm 1 m/s 736 mmHg 92%
    01:00 +11°C° 0 mm 1 m/s 736 mmHg 93%
    02:00 +9°C° 0 mm 0 m/s 735 mmHg 93%
    03:00 +9°C° 0 mm 0 m/s 735 mmHg 93%
    04:00 +9°C° 0 mm 0 m/s 735 mmHg 93%
    05:00 +9°C° 0 mm 0 m/s 735 mmHg 93%
    06:00 +9°C° 0 mm 0 m/s 735 mmHg 93%
    07:00 +9°C° 0 mm 0 m/s 735 mmHg 93%
    08:00 +11°C° 0 mm 0 m/s 736 mmHg 86%
    09:00 +13°C° 0 mm 0 m/s 736 mmHg 80%
    10:00 +15°C° 0 mm 0 m/s 736 mmHg 73%
    11:00 +18°C° 0 mm 1 m/s 736 mmHg 69%
    12:00 +19°C° 0 mm 1 m/s 735 mmHg 65%
    13:00 +20°C° 0 mm 1 m/s 735 mmHg 61%
    14:00 +20°C° 0 mm 1 m/s 735 mmHg 66%
    15:00 +19°C° 0 mm 1 m/s 734 mmHg 71%
    16:00 +16°C° 0 mm 0 m/s 734 mmHg 76%
    17:00 +15°C° 0 mm 0 m/s 734 mmHg 78%
    18:00 +15°C° 0 mm 1 m/s 735 mmHg 81%
    19:00 +14°C° 0 mm 1 m/s 735 mmHg 83%
    20:00 +14°C° 0 mm 1 m/s 735 mmHg 81%
    21:00 +13°C° 0 mm 1 m/s 735 mmHg 79%
    22:00 +13°C° 0 mm 1 m/s 735 mmHg 77%
    23:00 +13°C° 0 mm 1 m/s 735 mmHg 77%

    27 Octombrie, Duminică

    Timp Temperatura Precipitaţii Vânt Presiune Umiditate
    00:00 +12°C° 0 mm 1 m/s 735 mmHg 76%
    01:00 +12°C° 0 mm 1 m/s 735 mmHg 75%
    02:00 +12°C° 0 mm 1 m/s 736 mmHg 75%
    03:00 +11°C° 0 mm 1 m/s 736 mmHg 76%
    04:00 +10°C° 0 mm 2 m/s 736 mmHg 76%
    05:00 +10°C° 0 mm 2 m/s 736 mmHg 78%
    06:00 +10°C° 0 mm 2 m/s 737 mmHg 81%
    07:00 +10°C° 0 mm 2 m/s 737 mmHg 83%
    08:00 +10°C° 0 mm 2 m/s 738 mmHg 81%
    09:00 +12°C° 0 mm 2 m/s 738 mmHg 79%
    10:00 +11°C° 0 mm 3 m/s 738 mmHg 77%
    11:00 +11°C° 0 mm 3 m/s 738 mmHg 75%
    12:00 +11°C° 0 mm 3 m/s 738 mmHg 73%
    13:00 +12°C° 0 mm 3 m/s 738 mmHg 71%
    14:00 +12°C° 0 mm 2 m/s 738 mmHg 71%
    15:00 +12°C° 0 mm 2 m/s 737 mmHg 71%
    16:00 +11°C° 0 mm 1 m/s 737 mmHg 72%
    17:00 +10°C° 0 mm 1 m/s 737 mmHg 73%
    18:00 +10°C° 0 mm 1 m/s 738 mmHg 75%
    19:00 +8°C° 0 mm 0 m/s 738 mmHg 77%
    20:00 +8°C° 0 mm 0 m/s 738 mmHg 75%
    21:00 +9°C° 0 mm 0 m/s 738 mmHg 74%
    22:00 +9°C° 0 mm 0 m/s 738 mmHg 72%
    23:00 +9°C° 0 mm 0 m/s 738 mmHg 73%

    28 Octombrie, Luni

    Timp Temperatura Precipitaţii Vânt Presiune Umiditate
    00:00 +9°C° 0 mm 0 m/s 737 mmHg 73%
    01:00 +9°C° 0 mm 0 m/s 737 mmHg 74%
    02:00 +8°C° 0.2 mm 0 m/s 736 mmHg 79%
    03:00 +8°C° 0.2 mm 0 m/s 736 mmHg 83%
    04:00 +8°C° 0.2 mm 0 m/s 736 mmHg 88%
    05:00 +8°C° 0.2 mm 0 m/s 736 mmHg 89%
    06:00 +9°C° 0.2 mm 1 m/s 735 mmHg 91%
    07:00 +9°C° 0.2 mm 1 m/s 735 mmHg 93%
    08:00 +10°C° 0.1 mm 1 m/s 735 mmHg 93%
    09:00 +10°C° 0.1 mm 1 m/s 735 mmHg 93%
    10:00 +9°C° 0.1 mm 0 m/s 735 mmHg 93%
    11:00 +9°C° 0.1 mm 0 m/s 735 mmHg 92%
    12:00 +10°C° 0.1 mm 0 m/s 735 mmHg 92%
    13:00 +10°C° 0.1 mm 0 m/s 735 mmHg 92%
    14:00 +10°C° 0 mm 0 m/s 735 mmHg 91%
    15:00 +10°C° 0 mm 0 m/s 734 mmHg 91%
    16:00 +11°C° 0 mm 0 m/s 734 mmHg 91%
    17:00 +10°C° 0 mm 0 m/s 734 mmHg 92%
    18:00 +9°C° 0 mm 0 m/s 734 mmHg 94%
    19:00 +9°C° 0 mm 0 m/s 734 mmHg 96%
    20:00 +9°C° 0 mm 0 m/s 735 mmHg 95%
    21:00 +9°C° 0 mm 0 m/s 735 mmHg 95%
    22:00 +9°C° 0 mm 0 m/s 735 mmHg 95%
    23:00 +9°C° 0 mm 0 m/s 735 mmHg 95%
    Arată mai mult